Regional Weather Roundup
Issued by NWS

Home | Current Version | Previous Version | Graphics & Text | Print | Product List | Glossary On
Versions: 1 2 3 4 5 6 7 8 9 10 11 12 13 14 15 16 17 18 19 20 21 22 23 24 25 26 27 28 29 30 31 32 33 34 35 36 37 38 39 40 41 42 43 44 45 46 47 48 49 50
000
ASUS43 KMPX 230110
RWRMN
WEATHER ROUNDUP FOR MINNESOTA
NATIONAL WEATHER SERVICE TWIN CITIES/CHANHASSEN MN
800 PM CDT MON SEP 22 2014


NOTE: "FAIR" INDICATES FEW OR NO CLOUDS BELOW 12,000 FEET WITH NO
SIGNIFICANT WEATHER AND/OR OBSTRUCTIONS TO VISIBILITY. N/A MEANS
CURRENT SKY AND/OR WEATHER CONDITIONS ARE NOT AVAILABLE.

MNZ060>063-068>070-230200-
   Twin Cities Metro

CITY           SKY/WX    TMP DP  RH WIND       PRES   REMARKS
TWIN CITIES    CLEAR     67  49  52 S5        30.16R
ST PAUL        CLEAR     58  53  84 S5        30.16S
CRYSTAL        CLEAR     60  51  72 CALM      30.14S
BLAINE         CLEAR     61  54  77 CALM      30.15S
LAKEVILLE      CLEAR     57  52  82 CALM      30.16S
EDEN PRAIRIE   CLEAR     63  50  62 SE6       30.14S
SOUTH ST PAUL  CLEAR     62  52  70 CALM      30.15S
LAKE ELMO      FAIR      55  52  88 CALM      30.17R
$$
MNZ001>005-007-008-013>017-022>024-027-028-230200-
   Northwest Minnesota

CITY           SKY/WX    TMP DP  RH WIND       PRES   REMARKS
BEMIDJI        CLEAR     63  49  60 S3        30.09S
HALLOCK        CLEAR     61  50  67 S8        30.01S
ROSEAU         CLEAR     61  52  72 S7        30.05R
WARROAD        CLEAR     63  54  72 CALM      30.05S HAZE
THIEF RVR FALL CLEAR     63  48  59 S6        30.06R
CROOKSTON      CLEAR     61  52  72 S8        30.05S
FOSSTON        CLEAR     57  48  72 SE6       30.08S
DETROIT LAKES  CLEAR     63  50  63 SE6       30.11R
MOORHEAD       CLEAR     66  50  55 S6        30.06R
PARK RAPIDS    CLEAR     63  49  60 S5        30.10S
MAHNOMEN       FAIR      61  51  69 SE6       30.08R
$$
MNZ006-009>011-018-025>026-230200-
   North Central Minnesota

CITY           SKY/WX    TMP DP  RH WIND       PRES   REMARKS
BAUDETTE       CLEAR     60  51  72 SW5       30.06R
FLAG ISLAND    CLEAR     66  52  59 SW6       30.03R
INTL FALLS     CLEAR     54  51  90 SW3       30.06R
WASKISH        CLEAR     55  52  88 CALM      30.08R
BIG FORK       CLEAR     55  52  88 CALM      30.10R
LONGVILLE      CLEAR     54  52  94 CALM      30.11S
GRAND RAPIDS   CLEAR     55  52  88 S5        30.11S
CRANE LAKE     CLEAR     52  50  93 CALM      30.09R
ORR            CLEAR     57  48  72 CALM      30.07R
COOK           CLEAR     57  54  88 CALM      30.10R
WALKER         FAIR      57  50  78 CALM      30.10S
$$
MNZ012-019>021-037-230200-
   Northeast Minnesota

CITY           SKY/WX    TMP DP  RH WIND       PRES   REMARKS
DULUTH         CLEAR     59  49  69 W6        30.12R
ELY            CLEAR     61  48  63 SW3       30.09R
HIBBING        CLEAR     54  50  86 CALM      30.10S
EVELETH        CLEAR     57  50  77 CALM      30.12R
DULUTH HARBOR  CLEAR     64  54  68 SW9       30.11R
TWO HARBORS    CLEAR     57  50  77 W3        30.09R
SILVER BAY     CLEAR     54  52  94 CALM      30.08R
GRAND MARAIS     N/A     51  49  92 CALM      30.05R
G MARAIS ARPRT CLEAR     57  48  72 SW3       30.10R
$$
MNZ029>031-032-039>041-046>048-054>057-064-230200-
   West Central Minnesota

CITY           SKY/WX    TMP DP  RH WIND       PRES   REMARKS
FERGUS FALLS   CLEAR     63  46  55 SE7       30.09R
WHEATON        CLEAR     63  48  59 S7        30.10S
MORRIS         CLEAR     61  52  72 SE6       30.09F
ALEXANDRIA     CLEAR     60  50  69 SE6       30.13R
ELBOW LAKE     FAIR      62  51  66 SE6       30.10R
WADENA         CLEAR     57  48  72 S3        30.12R
GLENWOOD       CLEAR     57  52  82 SE5       30.14R
APPLETON       PTCLDY    64  50  59 S3        30.10S
BENSON         CLEAR     63  50  63 SW6       30.12R
ORTONVILLE     PTCLDY    61  48  63 S3        30.10S
MADISON        PTCLDY    61  52  72 S6        30.11S
WILLMAR        FAIR      63  48  59 CALM      30.14S
$$
MNZ033>034-036-042>043-049>051-058-059-230200-
   Central Minnesota

CITY           SKY/WX    TMP DP  RH WIND       PRES   REMARKS
ST CLOUD       CLEAR     61  52  72 SE3       30.13S
SAUK CENTRE    FAIR      59  50  71 SE3       30.13S
PAYNESVILLE    CLEAR     56  50  79 CALM      30.14R
AITKIN         CLEAR     55  48  76 CALM      30.12R
PINE RIVER     CLEAR     55  52  88 CALM      30.15R
BRAINERD       CLEAR     55  51  86 CALM      30.13R
STAPLES        CLEAR     57  50  77 S3        30.12S
LONG PRAIRIE   FAIR      55  50  82 CALM      30.14R
LITTLE FALLS   CLEAR     59  50  72 CALM      30.14R
LITCHFIELD     CLEAR     61  55  82 CALM      30.14S
BUFFALO        CLEAR     59  52  78 CALM      30.15S
MAPLE LAKE     CLEAR     58  55  91 CALM      30.15S
$$
MNZ037-044-045-052-053-230200-
   East Central Minnesota

CITY           SKY/WX    TMP DP  RH WIND       PRES   REMARKS
PRINCETON      CLEAR     61  52  72 S2        30.15R
MORA           CLEAR     55  52  88 CALM      30.16S
CAMBRIDGE      CLEAR     61  50  67 CALM      30.13S
RUSH CITY      CLEAR     58  52  79 CALM      30.15R
MOOSE LAKE     CLEAR     54  52  94 CALM      30.12R
HINCKLEY       FAIR      55  54  94 CALM      30.14R
CLOQUET        CLEAR     61  50  67 SW5       30.13R
MCGREGOR       CLEAR     61  52  72 CALM      30.13R
$$
MNZ071>073-080-081-089-090-097-098-230200-
   Southwest Minnesota

CITY           SKY/WX    TMP DP  RH WIND       PRES   REMARKS
MONTEVIDEO     PTCLDY    63  48  59 SW5       30.13S
GRANITE FALLS  PTCLDY    59  48  68 S7        30.14S
CANBY          PTCLDY    62  48  60 S6        30.12F
MARSHALL       PTCLDY    63  46  55 S6        30.13S
REDWOOD FALLS  PTCLDY    64  49  57 S6        30.13S
OLIVIA         CLEAR     63  46  55 S5        30.13S
PIPESTONE      PTCLDY    61  46  59 S7        30.15S
WINDOM         PTCLDY    63  48  59 S5        30.17S
WORTHINGTON    PTCLDY    61  46  59 S6        30.18S
JACKSON        CLEAR     61  46  59 S6        30.18F
TRACY          PTCLDY    62  49  62 CALM      30.15R
SLAYTON        PTCLDY    58  49  73 CALM      30.16S
$$
MNZ065>067-074>077-082>085-091>093-230200-
   South Central Minnesota

CITY           SKY/WX    TMP DP  RH WIND       PRES   REMARKS
MANKATO        CLEAR     64  46  52 S8        30.16S
NEW ULM        CLEAR     63  52  67 S7        30.15S
ST JAMES       PTCLDY    63  50  63 S6        30.17S
FAIRMONT       PTCLDY    61  46  59 S5        30.18R
GLENCOE        CLEAR     63  49  61 S3        30.14S
FARIBAULT      CLEAR     61  50  67 SE3       30.18R
OWATONNA       CLEAR     61  50  67 S6        30.18S
WASECA         CLEAR     55  45  67 S3        30.19S
ALBERT LEA     CLEAR     63  54  72 S3        30.19S
$$
MNZ078>079-086>088-094>096-230200-
   Southeast Minnesota

CITY           SKY/WX    TMP DP  RH WIND       PRES   REMARKS
ROCHESTER      CLEAR     57  50  77 SW6       30.21R
RED WING       CLEAR     57  54  88 CALM      30.16R
STANTON        CLEAR     56  51  83 CALM      30.16R
DODGE CENTER   CLEAR     57  50  77 S5        30.19S
WINONA         CLEAR     59  54  82 CALM      30.19R
AUSTIN         CLEAR     61  48  63 S3        30.19S
PRESTON        CLEAR     61  52  72 SW5       30.21R
$$
ABBREVIATIONS USED IN REMARKS
   TC - TEMPERATURES IN CELSIUS
  WCI - WIND CHILL INDEX
   HX - HEAT INDEX
  VSB - VISIBILITY
$$


USA.gov is the U.S. government's official web portal to all federal, state and local government web resources and services.